This is the latest recevied weather packets stored in our database for station/object WP3OF. If no packets are shown the sender has not sent any weather packets the latest 1 day(s).
| Time | Temp. | Humidity | Pressure | Rain* | Wind** | Luminosity | Snow |
|---|---|---|---|---|---|---|---|
| 1777959805 | - | - | - | 0 mm | 0.45 m/s, 166° | - | - |
| 1777959503 | - | - | - | 0 mm | 0.89 m/s, 170° | - | - |
| 1777959200 | - | - | - | 0 mm | 0.89 m/s, 178° | - | - |
| 1777958897 | - | - | - | 0 mm | 1.34 m/s, 174° | - | - |
| 1777958594 | - | - | - | 0 mm | 1.79 m/s, 172° | - | - |
| 1777958290 | - | - | - | 0 mm | 1.79 m/s, 189° | - | - |
| 1777957988 | - | - | - | 0 mm | 1.79 m/s, 175° | - | - |
| 1777957686 | - | - | - | 0 mm | 2.68 m/s, 189° | - | - |
| 1777957385 | - | - | - | 0 mm | 3.58 m/s, 194° | - | - |
| 1777957080 | - | - | - | 0 mm | 2.68 m/s, 184° | - | - |
| 1777956777 | - | - | - | 0 mm | 2.24 m/s, 192° | - | - |
| 1777956474 | - | - | - | 0 mm | 1.79 m/s, 195° | - | - |
| 1777956171 | - | - | - | 0 mm | 1.34 m/s, 181° | - | - |
| 1777955867 | - | - | - | 0 mm | 1.34 m/s, 178° | - | - |
| 1777955564 | - | - | - | 0 mm | 2.24 m/s, 188° | - | - |
| 1777955260 | - | - | - | 0 mm | 1.79 m/s, 195° | - | - |
| 1777954957 | - | - | - | 0 mm | 1.79 m/s, 193° | - | - |
| 1777954654 | - | - | - | 0 mm | 1.79 m/s, 188° | - | - |
| 1777954351 | - | - | - | 0 mm | 1.79 m/s, 188° | - | - |
| 1777954049 | - | - | - | 0 mm | 2.24 m/s, 186° | - | - |
| 1777953746 | - | - | - | 0 mm | 1.79 m/s, 181° | - | - |
| 1777953443 | - | - | - | 0 mm | 1.34 m/s, 170° | - | - |
| 1777953139 | - | - | - | 0 mm | 0.89 m/s, 179° | - | - |
| 1777952835 | - | - | - | 0 mm | 1.34 m/s, 178° | - | - |
| 1777952532 | - | - | - | 0 mm | 0.45 m/s, 150° | - | - |
* Rain latest hour (hover to see other rain measurements)
** Current wind speed in m/s (hover to see current wind gust speed)